^^
Paulen-Weather Station Historical Data
 
Daily Summary for August 18, 2019 Units:  Metric    English   Both
Daily Weekly Monthly Yearly Custom
  Current: High: Low: Average:
Temperature: 17 °C 17 °C 12 °C 13.8 °C
Dew Point: 14 °C 14 °C 11 °C 11.7 °C
Humidity: 82% 90% 82% 87%
Wind Speed: 18km/h 18km/h 0km/h 5.4km/h
Wind Gust: 19km/h 19km/h - -
WindN - - WSW
Pressure: 1001.83 hPa 1002.24 hPa 1001.22 hPa -
Precipitation: 0 mm      
Historical Graphs
 
 
Tabular Data for August 18, 2019
Time Temperature Dew Point Pressure Wind Wind Speed Wind Gust Humidity Rainfall Rate (Hourly) solar
00:04 14 °C 12 °C 1001.22 hPa WSW 4 km/h 3 km/h 86% 0 mm 0 W/m2
00:09 14 °C 12 °C 1001.25 hPa WSW 4 km/h 5 km/h 86% 0 mm 0 W/m2
00:14 14 °C 12 °C 1001.29 hPa W 4 km/h 5 km/h 86% 0 mm 0 W/m2
00:19 14 °C 12 °C 1001.36 hPa WSW 3 km/h 6 km/h 86% 0 mm 0 W/m2
00:24 14 °C 12 °C 1001.39 hPa WSW 3 km/h 3 km/h 86% 0 mm 0 W/m2
00:29 14 °C 12 °C 1001.42 hPa WSW 2 km/h 3 km/h 86% 0 mm 0 W/m2
00:34 14 °C 12 °C 1001.49 hPa WSW 3 km/h 3 km/h 86% 0 mm 0 W/m2
00:39 14 °C 12 °C 1001.49 hPa WSW 1 km/h 3 km/h 86% 0 mm 0 W/m2
00:44 14 °C 12 °C 1001.59 hPa WSW 2 km/h 5 km/h 86% 0 mm 0 W/m2
00:49 14 °C 12 °C 1001.69 hPa WSW 3 km/h 5 km/h 86% 0 mm 0 W/m2
00:54 14 °C 12 °C 1001.69 hPa WSW 1 km/h 5 km/h 86% 0 mm 0 W/m2
00:59 14 °C 12 °C 1001.73 hPa W 3 km/h 5 km/h 86% 0 mm 0 W/m2
01:04 14 °C 12 °C 1001.76 hPa W 3 km/h 5 km/h 86% 0 mm 0 W/m2
01:09 14 °C 12 °C 1001.76 hPa W 2 km/h 3 km/h 86% 0 mm 0 W/m2
01:14 14 °C 12 °C 1001.73 hPa Calm   2 km/h 86% 0 mm 0 W/m2
01:19 14 °C 11 °C 1001.76 hPa Calm   2 km/h 86% 0 mm 0 W/m2
01:24 14 °C 11 °C 1001.76 hPa Calm     86% 0 mm 0 W/m2
01:29 14 °C 11 °C 1001.8 hPa Calm     86% 0 mm 0 W/m2
01:34 14 °C 11 °C 1001.86 hPa Calm     86% 0 mm 0 W/m2
01:39 14 °C 11 °C 1001.86 hPa Calm     87% 0 mm 0 W/m2
01:44 14 °C 11 °C 1001.9 hPa Calm     87% 0 mm 0 W/m2
01:49 14 °C 11 °C 1001.9 hPa Calm     87% 0 mm 0 W/m2
01:54 14 °C 11 °C 1001.96 hPa Calm     87% 0 mm 0 W/m2
01:59 14 °C 12 °C 1002 hPa W 2 km/h 2 km/h 86% 0 mm 0 W/m2
02:04 14 °C 12 °C 1002.03 hPa W 4 km/h 3 km/h 86% 0 mm 0 W/m2
02:09 14 °C 12 °C 1002.03 hPa W 4 km/h 5 km/h 85% 0 mm 0 W/m2
02:14 14 °C 12 °C 1002.07 hPa W 6 km/h 5 km/h 85% 0 mm 0 W/m2
02:19 14 °C 12 °C 1002.17 hPa W 3 km/h 5 km/h 84% 0 mm 0 W/m2
02:24 14 °C 12 °C 1002.17 hPa W 4 km/h 5 km/h 84% 0 mm 0 W/m2
02:29 14 °C 12 °C 1002.17 hPa WSW 4 km/h 5 km/h 84% 0 mm 0 W/m2
02:34 14 °C 12 °C 1002.24 hPa WSW 6 km/h 5 km/h 84% 0 mm 0 W/m2
02:39 14 °C 12 °C 1002.24 hPa WSW 5 km/h 5 km/h 84% 0 mm 0 W/m2
02:44 14 °C 12 °C 1002.2 hPa WSW 3 km/h 5 km/h 84% 0 mm 0 W/m2
02:49 14 °C 12 °C 1002.17 hPa WSW 4 km/h 5 km/h 84% 0 mm 0 W/m2
02:54 14 °C 12 °C 1002.2 hPa WSW 4 km/h 5 km/h 84% 0 mm 0 W/m2
02:59 14 °C 12 °C 1002.17 hPa WSW 4 km/h 5 km/h 84% 0 mm 0 W/m2
03:04 14 °C 12 °C 1002.17 hPa WSW 2 km/h 3 km/h 84% 0 mm 0 W/m2
03:09 15 °C 12 °C 1002.17 hPa Calm   3 km/h 84% 0 mm 0 W/m2
03:14 15 °C 12 °C 1002.17 hPa Calm     83% 0 mm 0 W/m2
03:19 15 °C 12 °C 1002.13 hPa Calm     83% 0 mm 0 W/m2
03:24 15 °C 12 °C 1002.07 hPa Calm     83% 0 mm 0 W/m2
03:29 14 °C 12 °C 1002.03 hPa Calm     83% 0 mm 0 W/m2
03:34 14 °C 12 °C 1002 hPa WSW 2 km/h 3 km/h 84% 0 mm 0 W/m2
03:39 14 °C 12 °C 1001.96 hPa W 5 km/h 5 km/h 85% 0 mm 0 W/m2
03:44 14 °C 11 °C 1001.93 hPa W 4 km/h 5 km/h 86% 0 mm 0 W/m2
03:49 14 °C 11 °C 1001.96 hPa W 3 km/h 3 km/h 86% 0 mm 0 W/m2
03:54 14 °C 12 °C 1002.03 hPa W 1 km/h 3 km/h 87% 0 mm 0 W/m2
03:59 14 °C 12 °C 1002.03 hPa W 1 km/h 2 km/h 87% 0 mm 0 W/m2
04:04 13 °C 12 °C 1002.07 hPa W 3 km/h 5 km/h 88% 0 mm 0 W/m2
04:09 13 °C 11 °C 1002.03 hPa Calm   5 km/h 88% 0 mm 0 W/m2
04:14 13 °C 11 °C 1002.1 hPa NW 3 km/h 3 km/h 88% 0 mm 0 W/m2
04:19 13 °C 11 °C 1002.17 hPa NNW 5 km/h 5 km/h 88% 0 mm 0 W/m2
04:24 13 °C 11 °C 1002.17 hPa NNW 6 km/h 6 km/h 89% 0 mm 0 W/m2
04:29 13 °C 11 °C 1002.17 hPa NNW 5 km/h 6 km/h 89% 0 mm 0 W/m2
04:34 13 °C 11 °C 1002.1 hPa NNW 2 km/h 5 km/h 89% 0 mm 0 W/m2
04:39 13 °C 11 °C 1002.07 hPa Calm   2 km/h 89% 0 mm 0 W/m2
04:44 13 °C 11 °C 1002.07 hPa Calm     89% 0 mm 0 W/m2
04:49 13 °C 11 °C 1002 hPa NNW 5 km/h 4 km/h 89% 0 mm 0 W/m2
04:54 13 °C 11 °C 1002 hPa NNW 5 km/h 5 km/h 90% 0 mm 0 W/m2
04:59 13 °C 11 °C 1002.03 hPa NNW 2 km/h 5 km/h 90% 0 mm 0 W/m2
05:04 13 °C 11 °C 1002.07 hPa Calm   3 km/h 90% 0 mm 0 W/m2
05:09 13 °C 11 °C 1002.1 hPa NNW 3 km/h 3 km/h 90% 0 mm 0 W/m2
05:14 13 °C 11 °C 1002.1 hPa NNW 6 km/h 5 km/h 90% 0 mm 0 W/m2
05:19 13 °C 11 °C 1002.1 hPa N 7 km/h 7 km/h 90% 0 mm 0 W/m2
05:24 13 °C 11 °C 1002 hPa N 5 km/h 8 km/h 90% 0 mm 0 W/m2
05:29 13 °C 11 °C 1002 hPa N 4 km/h 6 km/h 90% 0 mm 0 W/m2
05:34 13 °C 11 °C 1002 hPa N 8 km/h 7 km/h 90% 0 mm 0 W/m2
05:39 13 °C 11 °C 1001.96 hPa N 9 km/h 10 km/h 90% 0 mm 0 W/m2
05:44 13 °C 11 °C 1001.96 hPa NNW 9 km/h 10 km/h 90% 0 mm 0 W/m2
05:49 13 °C 11 °C 1001.86 hPa NNW 9 km/h 10 km/h 90% 0 mm 0 W/m2
05:54 12 °C 11 °C 1001.93 hPa NNW 7 km/h 10 km/h 90% 0 mm 0 W/m2
05:59 12 °C 11 °C 1001.93 hPa NNW 6 km/h 8 km/h 90% 0 mm 0 W/m2
06:04 13 °C 11 °C 1001.9 hPa N 8 km/h 8 km/h 90% 0 mm 5 W/m2
06:09 13 °C 11 °C 1001.93 hPa N 5 km/h 8 km/h 90% 0 mm 12 W/m2
06:14 13 °C 11 °C 1001.93 hPa NNW 7 km/h 8 km/h 90% 0 mm 16 W/m2
06:19 13 °C 11 °C 1001.93 hPa NW 9 km/h 10 km/h 90% 0 mm 19 W/m2
06:24 13 °C 11 °C 1001.96 hPa NW 11 km/h 11 km/h 90% 0 mm 19 W/m2
06:29 12 °C 11 °C 1002 hPa NW 7 km/h 13 km/h 90% 0 mm 19 W/m2
06:34 12 °C 11 °C 1001.93 hPa NNW 6 km/h 8 km/h 90% 0 mm 30 W/m2
06:39 13 °C 11 °C 1001.93 hPa NNW 8 km/h 9 km/h 90% 0 mm 33 W/m2
06:44 13 °C 11 °C 1001.93 hPa NNW 7 km/h 11 km/h 90% 0 mm 26 W/m2
06:49 13 °C 11 °C 1001.93 hPa NNW 9 km/h 10 km/h 90% 0 mm 35 W/m2
06:54 13 °C 11 °C 1001.93 hPa NNW 8 km/h 10 km/h 90% 0 mm 56 W/m2
06:59 13 °C 11 °C 1001.9 hPa NNW 8 km/h 10 km/h 90% 0 mm 72 W/m2
07:04 13 °C 11 °C 1001.8 hPa NNW 8 km/h 10 km/h 90% 0 mm 83 W/m2
07:09 13 °C 11 °C 1001.86 hPa NNW 8 km/h 8 km/h 90% 0 mm 95 W/m2
07:14 13 °C 11 °C 1001.96 hPa N 7 km/h 10 km/h 90% 0 mm 105 W/m2
07:19 13 °C 11 °C 1002.1 hPa NNW 7 km/h 8 km/h 90% 0 mm 77 W/m2
07:24 13 °C 11 °C 1002.1 hPa NNW 7 km/h 8 km/h 90% 0 mm 84 W/m2
07:29 13 °C 11 °C 1002.03 hPa NNW 7 km/h 8 km/h 90% 0 mm 121 W/m2
07:34 13 °C 11 °C 1001.93 hPa NNW 6 km/h 8 km/h 90% 0 mm 114 W/m2
07:39 13 °C 11 °C 1002 hPa NNW 7 km/h 8 km/h 90% 0 mm 79 W/m2
07:44 13 °C 11 °C 1002 hPa NNW 8 km/h 8 km/h 90% 0 mm 197 W/m2
07:49 13 °C 11 °C 1001.9 hPa NNW 8 km/h 10 km/h 90% 0 mm 197 W/m2
07:54 13 °C 12 °C 1001.8 hPa NNW 8 km/h 10 km/h 90% 0 mm 178 W/m2
07:59 13 °C 12 °C 1001.8 hPa NNW 6 km/h 8 km/h 90% 0 mm 167 W/m2
08:04 13 °C 12 °C 1001.8 hPa NNW 6 km/h 6 km/h 90% 0 mm 144 W/m2
08:09 13 °C 12 °C 1001.76 hPa NNW 6 km/h 6 km/h 90% 0 mm 81 W/m2
08:14 13 °C 12 °C 1001.8 hPa NNW 6 km/h 6 km/h 89% 0 mm 120 W/m2
08:19 13 °C 12 °C 1001.8 hPa N 6 km/h 6 km/h 89% 0 mm 113 W/m2
08:24 13 °C 12 °C 1001.76 hPa N 6 km/h 6 km/h 89% 0 mm 183 W/m2
08:29 13 °C 12 °C 1001.9 hPa N 6 km/h 6 km/h 89% 0 mm 257 W/m2
08:34 14 °C 12 °C 1001.9 hPa NNW 6 km/h 5 km/h 89% 0 mm 257 W/m2
08:39 14 °C 12 °C 1002 hPa NNW 5 km/h 8 km/h 89% 0 mm 332 W/m2
08:44 14 °C 12 °C 1002 hPa NNW 6 km/h 5 km/h 89% 0 mm 327 W/m2
08:49 14 °C 12 °C 1001.96 hPa NNW 5 km/h 5 km/h 89% 0 mm 265 W/m2
08:54 14 °C 12 °C 1001.86 hPa NNW 4 km/h 6 km/h 89% 0 mm 169 W/m2
08:59 14 °C 12 °C 1001.9 hPa WNW 6 km/h 5 km/h 89% 0 mm 155 W/m2
09:04 14 °C 13 °C 1001.86 hPa NNW 9 km/h 8 km/h 89% 0 mm 169 W/m2
09:09 15 °C 13 °C 1001.8 hPa N 10 km/h 16 km/h 88% 0 mm 179 W/m2
09:14 15 °C 13 °C 1001.83 hPa ENE 11 km/h 13 km/h 87% 0 mm 213 W/m2
09:19 16 °C 13 °C 1001.83 hPa N 13 km/h 13 km/h 85% 0 mm 227 W/m2
09:24 16 °C 13 °C 1001.8 hPa N 13 km/h 14 km/h 84% 0 mm 199 W/m2
09:29 16 °C 13 °C 1001.83 hPa N 14 km/h 13 km/h 83% 0 mm 241 W/m2
09:34 16 °C 13 °C 1001.83 hPa N 16 km/h 19 km/h 83% 0 mm 234 W/m2
09:39 16 °C 13 °C 1001.86 hPa N 15 km/h 19 km/h 83% 0 mm 220 W/m2
09:44 16 °C 13 °C 1001.86 hPa N 16 km/h 19 km/h 83% 0 mm 216 W/m2
09:49 16 °C 13 °C 1001.76 hPa N 13 km/h 19 km/h 83% 0 mm 220 W/m2
09:54 16 °C 14 °C 1001.73 hPa N 14 km/h 16 km/h 83% 0 mm 220 W/m2
09:59 16 °C 13 °C 1001.76 hPa NNE 13 km/h 14 km/h 82% 0 mm 376 W/m2
10:04 17 °C 13 °C 1001.76 hPa N 15 km/h 14 km/h 82% 0 mm 418 W/m2
10:09 17 °C 14 °C 1001.83 hPa NNE 14 km/h 16 km/h 82% 0 mm 418 W/m2
10:14 17 °C 14 °C 1001.83 hPa N 18 km/h 19 km/h 82% 0 mm 413 W/m2
Compliments of Weather Underground - 2 mb